Location: Ottawa
(45.4170°N, 75.7000°W)
Time: 03:44:43
(UTC-04:00)

N. Korean satellite - Visible Passes

Search period start: 17 October 2019 00:00
Search period end: 27 October 2019 00:00
Orbit: 455 x 508 km, 97.2° (Epoch: 16 October)

Date Brightness Start Highest point End Pass type
(mag) Time Alt. Az. Time Alt. Az. Time Alt. Az.
17 Oct 7.5 06:48:11 10° NNE 06:51:43 54° E 06:55:17 10° S visible
17 Oct 9.8 19:00:03 10° SW 19:02:32 19° W 19:05:03 10° NW visible
18 Oct 9.1 06:23:14 10° NE 06:26:20 27° E 06:29:28 10° SSE visible
19 Oct 10.1 05:58:54 10° ENE 06:00:53 14° E 06:02:51 10° SE visible
20 Oct 10.3 19:18:50 10° WSW 19:20:09 12° W 19:21:29 10° WNW visible
21 Oct 8.0 06:40:25 10° NNE 06:43:54 43° E 06:47:25 10° S visible
21 Oct 9.4 18:51:51 10° SSW 18:54:39 23° W 18:57:28 10° NW visible
22 Oct 9.5 06:15:35 10° NE 06:18:29 22° E 06:21:25 10° SSE visible
23 Oct 10.4 05:51:39 10° ENE 05:52:59 12° E 05:54:20 10° ESE visible
24 Oct 6.9 06:57:44 10° NNE 07:01:25 75° ESE 07:05:05 10° S visible
24 Oct 10.0 19:10:14 10° SW 19:12:13 15° W 19:14:15 10° NW visible
25 Oct 8.5 06:32:38 10° NNE 06:36:03 35° E 06:39:28 10° SSE visible
25 Oct 8.9 18:43:42 10° SSW 18:46:44 28° W 18:49:48 10° NW visible
26 Oct 9.8 06:07:57 10° NE 06:10:36 19° E 06:13:14 10° SE visible
